| time (UTC) | temp C | wind direction | speed KPH | gust KPH | rain 1hr cm | rain 24hr cm | rain mn cm | humidity % | barometer mb |
| 20260502123030 | 26 | 74 | 1.6 | 9.7 | 0.00 | 0.00 | 0.00 | 26 | 1019.1 |
| 20260502122010 | 25 | 164 | 0.0 | 8.0 | 0.00 | 0.00 | 0.00 | 31 | 1019.2 |
| 20260502120943 | 26 | 191 | 0.0 | 4.8 | 0.00 | 0.00 | 0.00 | 26 | 1019.4 |
| 20260502114934 | 25 | 90 | 1.6 | 3.2 | 0.00 | 0.00 | 0.00 | 30 | 1019.7 |
| 20260502111555 | 24 | 157 | 0.0 | 1.6 | 0.00 | 0.00 | 0.00 | 30 | 1020.3 |
| 20260502110542 | 25 | 105 | 0.0 | 0.0 | 0.00 | 0.00 | 0.00 | 31 | 1020.3 |
| 20260502105604 | 24 | 82 | 0.0 | 3.2 | 0.00 | 0.00 | 0.00 | 30 | 1020.4 |
| 20260502104537 | 24 | 213 | 1.6 | 8.0 | 0.00 | 0.00 | 0.00 | 29 | 1020.7 |
| 20260502103559 | 23 | 167 | 0.0 | 4.8 | 0.00 | 0.00 | 0.00 | 32 | 1020.9 |
| 20260502102547 | 23 | 180 | 0.0 | 0.0 | 0.00 | 0.00 | 0.00 | 31 | 1021.0 |
| 20260502101538 | 22 | 180 | 0.0 | 1.6 | 0.00 | 0.00 | 0.00 | 32 | 1021.1 |
| 20260502100548 | 23 | 189 | 0.0 | 1.6 | 0.00 | 0.00 | 0.00 | 31 | 1021.2 |
| 20260502090645 | 20 | 120 | 0.0 | 6.4 | 0.00 | 0.00 | 0.00 | 33 | 1021.8 |
| 20260502071506 | 15 | 71 | 0.0 | 0.0 | 0.00 | 0.00 | 0.00 | 44 | 1022.6 |
| 20260502064220 | 13 | 71 | 0.0 | 0.0 | 0.00 | 0.00 | 0.00 | 49 | 1022.6 |
| 20260502062055 | 12 | 71 | 0.0 | 0.0 | 0.00 | 0.00 | 0.00 | 56 | 1022.6 |
| 20260502061042 | 11 | 71 | 0.0 | 0.0 | 0.00 | 0.00 | 0.00 | 60 | 1022.5 |
| 20260502054917 | 8 | 71 | 0.0 | 0.0 | 0.00 | 0.00 | 0.00 | 66 | 1022.5 |
| 20260502053930 | 8 | 71 | 0.0 | 0.0 | 0.00 | 0.00 | 0.00 | 66 | 1022.5 |
| 20260502052943 | 7 | 71 | 0.0 | 0.0 | 0.00 | 0.00 | 0.00 | 66 | 1022.5 |
| 20260502051935 | 7 | 71 | 0.0 | 0.0 | 0.00 | 0.00 | 0.00 | 66 | 1022.4 |
| 20260502050944 | 7 | 71 | 0.0 | 0.0 | 0.00 | 0.00 | 0.00 | 65 | 1022.3 |
| 20260502044816 | 6 | 71 | 0.0 | 0.0 | 0.00 | 0.00 | 0.00 | 64 | 1022.3 |
| 20260502043744 | 6 | 71 | 0.0 | 0.0 | 0.00 | 0.00 | 0.00 | 63 | 1022.2 |
| 20260502042754 | 6 | 71 | 0.0 | 0.0 | 0.00 | 0.00 | 0.00 | 63 | 1022.2 |
| 20260502041755 | 6 | 71 | 0.0 | 0.0 | 0.00 | 0.00 | 0.00 | 62 | 1022.2 |
| 20260502040729 | 6 | 71 | 0.0 | 0.0 | 0.00 | 0.00 | 0.00 | 62 | 1022.3 |
| 20260502035708 | 7 | 71 | 0.0 | 0.0 | 0.00 | 0.00 | 0.00 | 61 | 1022.2 |
| 20260502034647 | 7 | 71 | 0.0 | 0.0 | 0.00 | 0.00 | 0.00 | 61 | 1022.2 |
| 20260502033659 | 7 | 71 | 0.0 | 0.0 | 0.00 | 0.00 | 0.00 | 61 | 1022.3 |
| 20260502032637 | 7 | 71 | 0.0 | 0.0 | 0.00 | 0.00 | 0.00 | 60 | 1022.3 |
| 20260502031633 | 7 | 71 | 0.0 | 0.0 | 0.00 | 0.00 | 0.00 | 61 | 1022.2 |
| 20260502030652 | 7 | 71 | 0.0 | 0.0 | 0.00 | 0.00 | 0.00 | 60 | 1022.3 |
| 20260502024454 | 7 | 71 | 0.0 | 0.0 | 0.00 | 0.00 | 0.00 | 59 | 1022.2 |
| 20260502023433 | 8 | 71 | 0.0 | 0.0 | 0.00 | 0.00 | 0.00 | 58 | 1022.2 |
| 20260502021319 | 8 | 71 | 0.0 | 0.0 | 0.00 | 0.00 | 0.00 | 57 | 1022.2 |
| 20260502014041 | 8 | 71 | 0.0 | 0.0 | 0.00 | 0.00 | 0.00 | 56 | 1022.4 |
| 20260502013032 | 8 | 71 | 0.0 | 0.0 | 0.00 | 0.00 | 0.00 | 56 | 1022.4 |
| 20260502012010 | 9 | 71 | 0.0 | 0.0 | 0.00 | 0.00 | 0.00 | 55 | 1022.5 |
| 20260502010956 | 9 | 71 | 0.0 | 0.0 | 0.00 | 0.00 | 0.00 | 55 | 1022.6 |
| 20260502010010 | 10 | 71 | 0.0 | 0.0 | 0.00 | 0.00 | 0.00 | 54 | 1022.6 |
| 20260502005014 | 10 | 71 | 0.0 | 0.0 | 0.00 | 0.00 | 0.00 | 52 | 1022.7 |
| 20260502003951 | 10 | 71 | 0.0 | 0.0 | 0.00 | 0.00 | 0.00 | 51 | 1022.8 |
| 20260502001844 | 11 | 71 | 0.0 | 0.0 | 0.00 | 0.00 | 0.00 | 50 | 1022.9 |
| 20260502000816 | 11 | 71 | 0.0 | 0.0 | 0.00 | 0.00 | 0.00 | 49 | 1022.9 |
| 20260501235810 | 11 | 71 | 0.0 | 0.0 | 0.00 | 0.00 | 0.00 | 49 | 1023.0 |
| 20260501234809 | 11 | 71 | 0.0 | 0.0 | 0.00 | 0.00 | 0.00 | 48 | 1023.1 |
| 20260501233812 | 12 | 71 | 0.0 | 0.0 | 0.00 | 0.00 | 0.00 | 46 | 1023.1 |
| 20260501232752 | 12 | 71 | 0.0 | 0.0 | 0.00 | 0.00 | 0.00 | 45 | 1022.9 |
| 20260501231754 | 12 | 71 | 0.0 | 0.0 | 0.00 | 0.00 | 0.00 | 45 | 1022.9 |
| 20260501225641 | 13 | 71 | 0.0 | 0.0 | 0.00 | 0.00 | 0.00 | 44 | 1023.0 |
| 20260501224623 | 13 | 71 | 0.0 | 0.0 | 0.00 | 0.00 | 0.00 | 43 | 1023.0 |
| 20260501222410 | 14 | 71 | 0.0 | 0.0 | 0.00 | 0.00 | 0.00 | 41 | 1023.1 |
| 20260501221336 | 14 | 71 | 0.0 | 0.0 | 0.00 | 0.00 | 0.00 | 40 | 1023.1 |
| 20260501215228 | 15 | 71 | 0.0 | 0.0 | 0.00 | 0.00 | 0.00 | 37 | 1023.0 |
| 20260501214156 | 15 | 71 | 0.0 | 0.0 | 0.00 | 0.00 | 0.00 | 37 | 1023.0 |
| 20260501213202 | 15 | 71 | 0.0 | 0.0 | 0.00 | 0.00 | 0.00 | 37 | 1023.0 |
| 20260501212225 | 15 | 71 | 0.0 | 0.0 | 0.00 | 0.00 | 0.00 | 36 | 1023.0 |
| 20260501211222 | 15 | 71 | 0.0 | 0.0 | 0.00 | 0.00 | 0.00 | 36 | 1022.9 |
| 20260501210230 | 16 | 71 | 0.0 | 0.0 | 0.00 | 0.00 | 0.00 | 36 | 1022.9 |
| 20260501205211 | 16 | 71 | 0.0 | 0.0 | 0.00 | 0.00 | 0.00 | 36 | 1022.9 |
| 20260501203035 | 16 | 58 | 0.0 | 0.0 | 0.00 | 0.00 | 0.00 | 37 | 1022.9 |
| 20260501202029 | 16 | 58 | 0.0 | 0.0 | 0.00 | 0.00 | 0.00 | 36 | 1022.9 |
| 20260501201048 | 16 | 58 | 0.0 | 0.0 | 0.00 | 0.00 | 0.00 | 36 | 1022.9 |
| 20260501200037 | 16 | 58 | 0.0 | 0.0 | 0.00 | 0.00 | 0.00 | 34 | 1022.8 |
| 20260501195011 | 17 | 58 | 0.0 | 0.0 | 0.00 | 0.00 | 0.00 | 33 | 1022.8 |
| 20260501193958 | 17 | 58 | 0.0 | 0.0 | 0.00 | 0.00 | 0.00 | 32 | 1022.7 |
| 20260501193002 | 18 | 58 | 0.0 | 0.0 | 0.00 | 0.00 | 0.00 | 30 | 1022.6 |
| 20260501192003 | 18 | 58 | 0.0 | 0.0 | 0.00 | 0.00 | 0.00 | 29 | 1022.6 |
| 20260501191009 | 19 | 58 | 0.0 | 0.0 | 0.00 | 0.00 | 0.00 | 27 | 1022.5 |
| 20260501184824 | 20 | 58 | 0.0 | 0.0 | 0.00 | 0.00 | 0.00 | 25 | 1022.4 |
| 20260501183848 | 20 | 67 | 0.0 | 1.6 | 0.00 | 0.00 | 0.00 | 25 | 1022.5 |
| 20260501181631 | 21 | 69 | 0.0 | 1.6 | 0.00 | 0.00 | 0.00 | 23 | 1022.4 |
| 20260501180627 | 21 | 68 | 0.0 | 3.2 | 0.00 | 0.00 | 0.00 | 22 | 1022.3 |
| 20260501175605 | 22 | 61 | 0.0 | 3.2 | 0.00 | 0.00 | 0.00 | 20 | 1022.3 |
| 20260501174616 | 22 | 80 | 0.0 | 3.2 | 0.00 | 0.00 | 0.00 | 18 | 1022.3 |
| 20260501173555 | 23 | 82 | 0.0 | 4.8 | 0.00 | 0.00 | 0.00 | 17 | 1022.2 |
| 20260501171411 | 23 | 81 | 0.0 | 3.2 | 0.00 | 0.00 | 0.00 | 17 | 1022.2 |
| 20260501170358 | 23 | 87 | 1.6 | 12.9 | 0.00 | 0.00 | 0.00 | 15 | 1022.3 |
| 20260501165419 | 23 | 83 | 1.6 | 12.9 | 0.00 | 0.00 | 0.00 | 15 | 1022.3 |
| 20260501164432 | 23 | 75 | 1.6 | 8.0 | 0.00 | 0.00 | 0.00 | 15 | 1022.4 |
| 20260501163453 | 23 | 89 | 0.0 | 6.4 | 0.00 | 0.00 | 0.00 | 14 | 1022.5 |
| 20260501162453 | 23 | 71 | 1.6 | 8.0 | 0.00 | 0.00 | 0.00 | 15 | 1022.6 |
| 20260501155217 | 24 | 115 | 1.6 | 9.7 | 0.00 | 0.00 | 0.00 | 13 | 1022.8 |
| 20260501154159 | 24 | 86 | 1.6 | 11.3 | 0.00 | 0.00 | 0.00 | 12 | 1022.9 |
| 20260501153158 | 24 | 101 | 3.2 | 11.3 | 0.00 | 0.00 | 0.00 | 13 | 1023.0 |
| 20260501152146 | 24 | 88 | 1.6 | 8.0 | 0.00 | 0.00 | 0.00 | 13 | 1023.1 |
| 20260501151159 | 24 | 86 | 1.6 | 14.5 | 0.00 | 0.00 | 0.00 | 13 | 1023.2 |
| 20260501150140 | 24 | 172 | 1.6 | 14.5 | 0.00 | 0.00 | 0.00 | 12 | 1023.3 |